Theta_e
298 299 300 300 300 300 300 300 301 300 300 300 299 298 299 298 298 298 298 299 300 300 302 302 303 304 303 302 303 302 303 302 304 305 306 306 306 307 306 308 312 311 311 312 312 313 313 310 315 315 314 314 312 312
299 300 300 300 300 300 300 300 300 300 300 301 299 298 299 299 298 298 299 299 300 300 301 302 303 303 303 303 303 302 304 303 303 304 304 304 305 304 307 308 308 312 312 314 313 313 310 311 311 309 310 312 312 312
300 300 300 300 299 299 299 299 299 299 300 300 299 298 298 299 299 298 299 300 299 299 300 301 302 303 303 303 303 303 303 303 303 303 303 304 305 304 308 308 308 308 307 310 310 310 310 308 308 310 310 310 311 312
300 300 300 299 299 299 299 300 299 299 300 300 299 299 298 298 299 299 299 299 300 299 300 300 302 303 303 303 303 303 303 304 304 303 304 303 306 303 305 306 306 306 307 309 309 309 309 309 309 308 309 310 311 312
298 299 299 299 299 299 300 300 299 299 299 300 299 299 298 298 299 298 299 299 299 300 299 299 300 301 301 303 303 303 303 303 304 306 305 306 303 307 304 306 308 307 308 309 309 306 305 306 307 306 306 306 306 306
300 299 300 300 300 300 300 300 300 300 299 301 300 299 299 298 299 298 298 298 299 299 299 300 299 301 300 303 303 304 304 304 304 305 304 305 306 306 306 307 305 305 304 303 305 304 305 306 306 306 305 304 303 304
299 300 299 299 299 299 299 300 299 299 300 300 300 299 299 298 299 299 299 299 299 299 299 299 301 302 301 301 302 303 304 305 304 305 305 305 305 306 305 305 302 300 298 300 301 302 305 304 304 303 303 304 301 299
299 299 299 300 299 299 299 300 299 299 300 300 300 299 298 298 298 300 300 299 298 298 299 298 299 302 302 303 302 303 303 303 303 302 303 305 305 305 305 297 297 294 295 298 295 296 298 300 301 301 300 305 301 303
300 299 300 299 299 299 299 300 299 300 300 300 299 298 299 298 298 298 299 299 299 299 299 297 299 304 302 302 302 300 301 303 301 302 303 305 304 302 295 293 292 292 292 292 294 295 297 297 296 296 297 300 296 293
299 299 299 299 299 299 299 300 300 300 300 300 299 300 299 300 299 299 300 300 299 299 300 299 299 302 302 301 300 301 301 303 304 303 301 301 295 291 290 289 289 288 289 290 291 293 292 292 292 291 291 291 291 290
299 299 300 300 300 300 299 299 299 299 300 300 300 300 299 300 300 299 298 299 299 300 298 298 298 300 300 302 302 300 303 301 302 303 304 298 293 290 288 287 286 286 286 287 287 289 289 289 288 288 287 287 287 286
300 300 300 300 300 301 300 300 300 300 300 300 300 299 300 298 298 298 299 298 300 300 297 301 298 298 299 301 302 300 302 301 302 296 296 291 289 287 286 286 284 284 284 285 285 285 286 286 286 286 284 283 283 283
298 300 301 300 300 299 300 300 300 300 300 299 297 292 292 288 288 290 294 296 296 294 293 296 299 298 298 300 301 302 299 297 292 291 288 288 287 286 285 284 283 283 283 283 283 282 282 283 283 283 282 281 282 282
297 298 300 300 300 300 298 300 301 300 297 291 288 284 283 283 287 287 288 290 290 290 291 295 299 297 295 296 294 297 292 293 291 288 287 285 284 284 283 283 282 282 281 281 281 281 280 280 280 281 281 281 282 281
297 296 297 299 297 296 296 296 297 297 291 286 286 284 284 284 284 285 285 287 288 290 293 297 294 293 291 290 290 292 290 288 287 286 285 283 282 282 282 282 281 281 281 280 280 280 280 280 280 280 280 281 281 281
297 294 295 297 297 295 296 294 294 291 286 284 282 283 283 283 283 283 283 285 288 291 293 292 293 291 290 288 287 286 287 285 284 282 282 281 281 281 281 281 281 281 280 280 280 280 280 280 280 280 280 280 280 280
295 294 293 293 295 296 295 294 289 285 284 284 282 282 281 282 282 282 282 283 287 290 290 289 288 288 289 287 284 283 283 283 281 280 280 280 280 280 281 281 280 280 280 280 280 280 279 280 280 281 280 279 279 279
295 295 294 294 294 293 293 288 285 284 282 282 281 282 282 281 282 282 282 283 286 287 286 286 285 285 285 286 284 282 280 279 279 278 278 279 280 280 280 280 280 280 280 280 280 280 280 280 280 279 278 278 278 278
296 295 295 294 293 291 288 286 285 282 282 282 282 282 282 282 281 282 282 282 283 284 283 283 282 282 281 281 281 280 279 279 278 277 278 279 279 279 279 280 280 280 280 280 280 280 280 280 279 278 278 278 278 276
296 295 294 293 292 290 288 286 285 284 283 282 282 282 281 281 281 281 281 281 281 280 279 278 278 278 279 280 280 280 279 279 279 278 277 278 278 279 279 279 279 279 279 279 279 279 278 278 277 277 276 276 275 274
294 294 293 293 292 291 289 287 285 284 284 284 283 283 282 282 280 280 279 280 279 279 278 277 277 278 279 280 280 280 279 279 280 279 278 277 278 278 278 278 278 278 278 278 278 276 275 274 274 273 273 273 273 272
293 292 292 291 291 290 289 288 287 286 287 286 285 283 282 281 280 280 280 278 278 277 278 277 278 279 279 279 279 279 279 279 279 278 278 278 277 277 277 277 277 277 276 274 274 274 273 272 271 271 271 271 270 270
293 293 293 293 292 291 290 290 290 289 286 286 286 283 281 280 280 281 279 279 277 277 278 278 278 278 278 278 278 278 278 278 278 278 277 277 276 275 274 274 273 273 273 273 272 272 271 271 270 270 270 269 269 269
293 292 291 291 291 284 289 288 288 286 286 286 285 283 280 280 280 278 278 278 277 277 278 277 278 278 277 277 277 276 276 276 276 275 274 274 274 273 273 272 272 272 271 271 271 270 270 269 269 269 269 268 268 268
291 285 288 281 287 284 281 279 281 282 281 280 281 278 277 280 276 275 276 277 278 277 277 277 277 277 277 276 276 275 275 274 274 274 273 273 273 272 272 271 271 271 270 269 269 269 269 269 268 268 268 268 268 268
282 283 282 280 280 282 280 279 277 278 277 277 276 276 278 273 274 274 277 278 278 278 277 277 277 276 276 276 275 275 275 274 274 273 273 273 272 272 271 270 270 270 270 269 269 269 268 268 268 268 268 268 267 267
279 278 281 281 283 282 277 280 280 277 275 276 274 271 271 272 271 275 277 278 278 278 277 277 277 277 276 275 274 273 273 273 273 273 272 272 271 271 271 270 270 270 269 269 269 269 269 268 268 268 268 268 267 267
279 279 276 276 276 277 271 270 271 271 276 276 274 269 270 271 275 276 277 278 278 278 278 277 276 275 275 274 273 273 273 273 272 272 272 271 271 270 270 270 270 269 269 269 269 269 268 268 268 268 267 267 267 267
277 277 278 268 272 272 272 270 273 275 275 275 269 270 274 274 275 276 278 278 277 277 277 276 275 275 274 273 273 272 272 272 272 271 271 271 271 270 270 269 269 269 269 269 269 268 268 268 268 267 267 267 267 267
277 277 274 271 268 271 273 272 274 274 275 274 274 274 274 274 275 276 276 276 276 276 276 275 274 274 273 273 272 272 272 271 271 271 270 270 270 269 269 269 269 269 269 268 268 268 268 267 267 267 267 267 267 267
278 277 275 274 272 273 274 274 275 275 275 275 275 274 274 274 274 274 274 275 275 275 275 274 274 274 273 273 272 272 271 271 271 270 270 270 269 269 268 268 268 268 268 268 268 268 268 267 267 267 267 267 267 267
277 276 273 271 274 275 275 277 277 276 276 275 275 274 274 275 274 274 274 274 274 274 274 274 274 274 273 272 272 271 271 271 270 270 270 269 269 268 268 268 268 268 268 268 267 267 267 267 267 267 267 267 267 267
278 278 277 276 275 275 277 277 277 276 276 276 275 275 274 274 273 274 274 274 273 273 273 274 274 274 273 272 271 271 271 270 270 270 269 269 269 268 268 268 268 268 268 268 268 268 268 267 267 267 267 267 267 267
Wind_Speed
36 32 30 29 24 24 26 28 27 26 28 34 34 34 35 38 43 46 43 36 39 11 6 28 28 19 18 22 6 11 6 5 4 6 4 3 3 4 3 2 4 7 6 5 5 4 8 0 2 1 7 9 12 22
31 24 22 22 25 27 28 26 22 24 24 33 34 33 31 35 39 42 31 38 38 23 6 23 27 28 34 36 24 21 9 7 10 3 4 3 4 1 5 3 2 4 6 4 8 6 2 3 6 14 17 20 22 26
20 21 21 22 24 24 22 21 20 20 19 29 33 33 32 35 38 40 33 36 35 19 10 9 16 26 26 27 25 12 17 12 11 10 4 3 3 4 4 5 3 3 4 3 0 3 7 9 10 12 21 21 25 27
21 23 23 25 25 25 23 21 18 20 21 21 34 33 31 30 33 45 31 38 34 10 3 6 17 19 32 27 29 28 12 13 8 11 2 2 2 5 3 1 3 2 3 3 5 7 14 11 13 22 25 23 24 28
21 22 24 26 22 21 17 15 17 16 21 22 33 31 31 27 32 38 30 37 31 16 4 5 13 20 19 30 25 24 23 14 13 6 2 2 1 2 0 0 3 3 3 3 5 2 4 10 19 16 21 20 20 22
21 24 23 18 22 19 14 12 13 14 20 26 31 35 33 30 31 35 11 24 27 17 5 3 7 9 21 26 33 20 20 21 14 4 3 6 5 3 2 2 1 1 3 3 2 9 12 9 12 14 19 17 16 15
20 18 24 26 21 21 15 12 13 18 23 24 34 37 35 37 33 14 8 19 30 14 4 1 1 4 16 26 22 21 20 13 16 5 5 4 3 6 2 4 3 6 8 7 6 8 4 5 8 15 15 15 13 10
18 26 23 29 30 24 21 21 22 24 23 28 39 41 36 35 29 10 7 23 31 12 4 2 2 3 16 8 5 14 10 10 11 5 3 3 5 3 3 5 6 11 13 5 12 11 12 13 12 13 12 14 13 12
18 24 29 30 30 28 28 27 26 28 33 35 38 39 38 24 14 7 21 30 17 4 6 4 3 2 16 5 7 9 11 3 7 3 3 6 3 1 6 9 10 11 10 14 16 13 7 8 9 12 12 10 10 10
10 15 22 27 33 32 29 29 28 34 36 47 46 18 7 10 26 27 10 3 4 2 3 2 3 3 10 4 2 4 1 3 2 1 6 2 3 11 12 10 9 11 11 12 14 12 15 14 13 12 10 8 8 7
4 9 24 26 24 27 27 33 36 37 32 12 6 10 39 37 13 4 4 3 3 3 2 1 2 2 3 3 2 3 2 2 3 2 2 2 3 5 13 11 11 11 11 9 8 8 9 9 8 6 6 6 6 6
11 13 18 21 25 27 26 25 21 16 12 19 23 27 9 5 5 4 2 2 2 2 3 1 3 3 4 4 3 2 2 1 2 3 3 2 3 10 11 12 12 12 10 9 8 6 4 4 5 5 7 9 11 12
13 9 11 15 18 21 24 36 36 34 34 28 7 6 5 7 8 4 3 3 3 5 8 8 3 3 4 6 4 2 3 2 2 3 3 3 9 10 11 10 11 11 9 7 8 9 8 8 9 10 13 14 16 20
10 9 9 10 8 11 18 22 21 13 5 9 7 7 4 4 4 3 2 2 4 4 6 6 4 3 5 4 3 4 3 3 3 2 2 3 9 8 8 9 8 10 10 12 13 13 16 18 20 19 19 19 23 26
7 8 6 8 7 12 12 10 10 10 7 7 7 5 4 2 3 4 4 1 5 4 4 2 6 6 4 4 3 3 3 4 3 2 2 3 5 7 9 10 11 12 14 16 16 19 20 22 24 26 24 25 26 27
3 6 10 6 4 5 5 6 9 10 7 6 9 4 5 2 6 8 13 7 11 8 5 6 3 4 6 3 5 4 2 2 2 1 1 2 6 8 10 10 13 15 17 19 20 21 22 23 25 26 25 25 26 26
2 5 8 10 7 3 3 5 7 10 7 6 5 11 5 4 3 7 11 12 9 5 3 3 5 4 3 3 3 3 2 2 4 5 5 6 7 8 9 11 13 16 19 20 20 20 21 22 22 24 26 24 23 23
8 5 5 4 5 17 22 13 9 9 9 11 5 8 14 11 9 11 11 12 3 4 3 3 5 4 3 3 2 2 6 10 10 9 9 8 8 9 10 12 12 13 15 16 16 17 18 18 20 21 19 17 17 16
5 5 5 4 4 7 7 9 8 7 8 4 5 6 6 10 15 9 11 14 17 13 10 5 5 3 3 4 7 10 9 7 9 11 11 9 9 9 10 10 11 12 13 14 14 15 15 15 15 14 12 11 13 14
10 10 8 5 5 7 7 7 7 9 4 5 6 10 6 5 10 16 16 16 14 7 8 5 3 3 4 9 10 10 10 11 12 12 12 10 9 8 9 10 11 11 11 12 12 12 12 12 12 11 9 9 9 11
16 18 18 18 21 13 8 5 7 8 9 5 5 2 6 16 15 14 14 12 13 8 5 8 12 14 13 13 11 10 9 6 6 4 10 10 8 8 8 8 7 7 8 9 8 10 9 10 10 8 6 7 8 9
15 15 14 12 8 7 8 8 11 12 6 7 4 4 5 4 6 12 11 19 8 8 6 10 12 12 12 11 10 8 8 8 10 10 10 8 8 7 7 6 5 5 7 8 8 8 8 9 8 7 7 8 8 8
8 5 6 6 7 6 5 6 4 3 3 3 3 3 4 4 5 7 7 7 5 7 10 11 12 11 14 12 11 12 10 8 9 9 8 7 7 7 6 6 6 5 5 6 6 6 7 8 8 8 8 9 8 7
5 4 5 5 6 3 7 4 4 5 5 3 3 3 3 3 3 6 4 3 5 8 10 10 10 12 11 11 11 11 10 7 8 8 8 6 5 7 6 6 6 5 5 5 5 5 6 7 7 7 8 7 6 6
4 7 4 5 5 5 4 3 3 4 3 2 3 2 1 2 3 3 2 6 8 8 7 6 5 7 10 11 10 9 8 7 5 5 7 6 5 5 5 5 4 4 5 5 4 5 4 5 5 4 4 4 4 4
7 9 5 2 3 4 1 4 2 3 3 3 2 3 2 3 4 2 2 13 11 9 9 7 6 8 8 8 7 6 5 4 3 2 3 2 3 3 2 2 3 3 2 3 3 4 4 3 3 2 2 3 3 4
5 4 7 7 6 8 6 8 6 5 4 3 2 2 3 4 2 1 8 12 12 10 8 6 5 6 7 6 5 5 4 3 3 4 4 4 3 3 2 2 0 1 1 0 1 1 2 1 0 1 2 3 4 5
5 6 5 6 9 9 5 3 3 2 2 3 4 4 4 4 3 6 7 11 11 9 6 6 8 8 7 7 6 6 5 5 5 5 4 5 5 4 3 1 1 1 1 1 2 2 1 2 2 3 3 4 5 6
7 5 6 6 7 9 9 3 2 3 2 2 4 2 4 4 8 13 16 14 11 7 7 8 10 8 6 5 4 3 3 2 3 3 5 5 4 4 3 2 1 1 0 1 1 1 2 3 4 5 5 7 8 10
4 6 7 6 5 5 6 6 7 8 9 11 9 16 19 18 18 16 14 12 10 9 9 8 9 8 6 5 5 3 2 2 4 4 4 4 4 4 4 3 3 3 3 2 3 4 5 6 6 7 8 9 10 10
5 5 7 7 6 12 21 23 21 18 18 18 23 22 15 11 12 11 10 9 8 7 7 8 7 5 4 4 4 3 3 3 4 4 4 4 4 4 4 4 3 3 3 4 4 5 6 6 7 8 8 9 10 11
5 5 8 5 5 11 4 4 7 8 7 6 6 7 8 5 5 11 12 11 9 8 8 8 6 4 2 3 3 4 4 4 3 4 4 5 5 5 5 5 5 5 5 5 6 6 7 7 7 8 9 10 11 12
12 20 17 10 6 7 5 6 5 5 5 4 3 2 3 3 5 8 13 12 9 7 7 6 5 3 2 3 3 4 4 4 5 6 6 5 5 5 5 6 6 6 6 6 6 6 7 7 8 9 10 11 12 13
Wind_Direction
303 306 303 293 287 285 288 283 271 262 251 237 227 227 219 214 215 208 214 213 204 200 224 207 196 176 176 180 175 155 132 182 172 189 208 189 189 232 243 204 177 176 195 189 210 241 267 36 144 344 333 293 282 316
309 312 306 302 294 290 287 280 272 256 263 228 218 219 215 209 208 204 203 208 209 212 220 202 200 208 211 205 184 169 185 152 178 160 194 190 202 200 208 233 123 195 201 191 197 205 301 34 5 317 313 299 305 307
318 318 312 308 308 301 291 284 267 257 248 219 209 212 205 203 200 196 197 183 187 184 182 217 192 195 198 208 209 180 219 207 187 195 163 192 209 162 175 224 210 242 183 226 317 252 263 289 317 9 332 319 314 311
330 322 318 314 307 302 292 279 263 245 234 232 203 205 196 190 189 192 177 184 184 144 139 202 177 196 202 199 206 209 210 187 211 200 167 158 201 193 200 235 212 222 156 232 262 289 325 292 357 352 337 337 331 326
340 332 327 320 319 310 292 270 244 244 222 204 192 197 186 182 182 175 169 176 174 172 153 178 193 222 213 199 205 214 215 208 225 224 109 237 185 162 19 56 230 198 228 240 282 23 313 305 326 334 340 338 341 342
353 348 349 343 338 324 300 260 229 216 199 183 184 178 172 162 164 143 133 188 185 151 115 147 200 210 204 201 211 210 216 212 210 201 193 195 226 170 184 235 335 79 62 57 251 309 298 304 318 318 334 336 334 340
14 22 5 360 1 350 329 223 181 173 174 170 173 166 167 166 168 137 147 168 169 135 134 73 291 194 204 202 211 216 227 218 210 196 189 184 236 185 177 245 43 355 341 314 342 321 274 309 319 327 332 334 327 336
28 25 36 37 28 39 50 124 144 146 153 151 160 156 158 162 157 100 87 150 159 153 132 123 233 167 174 162 149 185 172 161 168 173 146 180 150 180 225 57 24 8 341 328 342 329 301 298 296 306 331 339 346 356
24 23 19 48 51 56 81 100 120 134 129 136 144 143 142 149 166 133 126 148 145 126 159 165 167 138 164 141 152 180 184 155 142 165 197 165 150 152 36 18 6 360 346 320 323 328 325 342 333 321 335 344 357 15
28 22 29 42 76 74 84 103 125 131 131 135 128 121 101 124 142 136 116 99 149 210 155 165 153 150 174 157 123 134 88 117 144 171 131 83 86 74 31 16 353 341 332 334 337 342 337 345 340 334 355 3 8 18
36 30 56 49 95 68 100 100 108 127 120 94 74 92 123 120 122 118 113 153 156 159 177 122 148 158 118 108 107 32 119 119 141 138 190 87 74 20 358 360 355 349 347 345 333 321 315 309 317 345 9 37 53 62
72 76 69 81 75 66 69 118 114 125 97 119 121 126 120 66 68 90 84 94 52 56 2 27 67 96 90 115 108 135 90 94 80 26 68 75 40 7 357 357 358 1 4 8 7 0 351 8 28 44 59 71 82 92
49 77 85 91 78 64 85 110 106 104 111 115 111 84 35 360 48 50 24 32 50 358 350 8 60 65 62 64 86 148 98 90 87 50 75 52 15 16 12 14 21 27 33 38 49 54 61 73 83 85 91 94 104 106
44 65 94 86 84 64 86 127 124 107 100 55 46 39 65 8 38 32 347 358 340 329 355 11 59 50 12 57 350 74 37 53 78 80 89 22 19 38 46 49 57 58 67 74 76 82 85 89 92 96 95 101 106 104
33 64 84 122 102 75 75 116 171 174 65 65 42 52 61 335 14 347 352 304 351 356 15 87 63 56 26 72 31 95 58 68 45 93 96 20 44 67 80 81 80 83 87 89 92 93 94 98 98 99 103 106 106 106
125 77 71 113 136 102 99 81 113 88 67 65 50 58 2 44 355 11 8 12 22 29 51 45 71 64 46 49 49 32 83 114 145 93 47 58 77 90 98 99 104 104 101 102 100 102 103 101 100 102 103 101 100 100
56 100 78 85 102 125 120 102 63 57 65 58 45 31 64 55 339 346 354 346 11 29 59 56 55 52 62 62 62 24 78 97 113 87 84 92 97 103 107 109 111 113 110 108 107 104 103 106 108 105 100 100 100 98
114 115 130 103 103 78 70 49 73 67 67 55 77 31 55 50 21 26 15 21 52 78 61 78 96 57 50 83 101 97 89 96 101 97 92 93 99 109 114 112 110 106 103 103 103 106 106 103 98 96 99 101 101 100
110 110 137 71 94 82 64 48 49 86 66 71 56 43 49 43 41 50 55 68 83 95 100 65 63 56 55 42 91 105 114 122 110 95 88 87 91 96 99 103 104 104 104 104 105 99 98 97 98 101 102 106 104 103
100 114 115 100 83 80 76 61 67 86 79 96 73 58 63 42 42 53 58 59 61 60 53 49 45 44 72 86 116 124 128 131 124 109 94 92 93 101 101 103 102 103 102 100 100 101 102 102 101 100 102 104 108 105
110 114 106 96 67 71 82 93 72 103 123 102 121 84 82 52 41 34 27 33 58 38 64 69 87 98 104 108 112 118 126 137 140 142 130 115 108 106 105 101 103 107 107 105 106 106 105 100 96 94 98 104 101 102
123 117 94 67 74 75 71 49 113 121 96 125 117 75 60 35 22 19 37 41 59 37 70 105 107 112 111 103 102 103 102 116 118 118 116 115 113 108 104 99 100 109 111 108 103 99 97 91 86 88 92 97 99 101
124 95 71 75 85 79 122 137 89 96 99 109 88 62 43 51 42 33 71 47 65 83 110 113 113 113 110 108 109 105 104 106 109 106 104 104 103 98 96 100 96 91 103 110 102 96 95 92 88 88 87 89 87 88
121 70 57 68 77 122 133 67 79 81 88 71 71 76 46 71 71 68 79 71 118 123 117 117 121 120 117 118 112 107 103 105 111 111 100 89 97 100 93 89 87 91 101 107 114 114 108 104 95 90 92 89 92 90
101 14 40 40 71 89 73 48 38 65 84 76 89 62 20 89 75 70 113 152 164 157 153 150 156 147 137 124 117 111 104 95 85 96 102 95 80 82 84 80 77 77 86 96 118 114 116 110 98 90 87 86 77 64
73 19 49 55 23 89 130 92 104 127 106 74 71 96 86 83 73 96 144 162 161 147 129 118 120 126 123 119 113 109 107 100 78 57 86 58 39 40 64 76 65 60 62 93 113 113 107 97 88 68 50 34 20 14
72 18 51 49 93 98 82 74 80 83 81 115 155 81 73 72 118 196 143 148 150 144 131 127 122 119 122 113 101 95 91 80 71 69 58 43 20 1 348 341 5 48 72 151 146 144 132 127 46 343 336 336 338 341
80 41 95 17 65 47 105 72 63 85 94 104 92 53 107 145 139 153 150 147 152 145 133 124 123 119 116 108 97 91 98 89 68 54 45 33 27 23 19 18 29 118 155 185 196 206 232 260 281 302 319 327 331 334
59 72 93 44 57 54 41 62 82 65 75 84 107 119 114 93 126 137 137 138 139 143 135 129 127 123 117 104 88 94 98 68 25 14 8 2 356 357 2 358 335 290 276 247 243 257 276 287 304 306 310 313 318 320
57 41 89 63 60 42 23 45 90 96 101 102 99 111 101 104 116 125 130 136 142 148 143 135 137 124 106 90 82 83 63 25 2 353 351 347 352 348 348 340 321 310 304 302 302 299 304 308 309 309 310 310 312 317
89 87 79 64 78 107 100 92 96 98 94 103 116 109 111 111 119 127 137 148 155 149 146 142 140 123 95 58 45 37 19 359 346 344 346 348 349 349 346 339 332 324 313 307 307 305 303 306 312 315 318 321 322 324
49 74 119 104 148 166 116 99 82 86 81 80 72 105 110 111 125 158 150 139 137 146 152 156 156 146 92 38 34 18 9 4 1 352 341 335 333 331 330 330 330 327 321 317 314 313 315 315 315 318 321 322 322 324
86 95 101 108 119 165 161 132 91 99 82 81 88 95 98 108 136 169 178 173 159 163 174 167 153 132 71 49 24 10 9 13 7 3 358 351 341 331 326 325 326 327 325 323 322 319 316 317 319 321 322 324 325 326